Temperature
12 12 12 11 11 11 11 11 11 11 11 11 11 12 12 13 13 13 14 14 14 15 15 14 15 15 14 14 14 14 14 13 13 13 13 13 13 13 13 14 14 14 14
12 11 11 11 11 11 10 10 10 10 10 10 10 11 11 12 12 12 13 13 14 14 14 14 14 14 14 14 14 14 14 14 13 13 13 13 13 13 13 13 13 13 13
11 11 11 11 10 10 10 10 10 10 10 10 10 10 10 11 11 11 12 12 13 13 14 14 14 14 14 14 14 14 14 14 13 13 13 13 13 12 12 12 12 12 12
11 11 11 10 10 10 10 10 10 10 10 10 9 9 10 10 10 10 11 11 12 12 13 13 13 14 14 14 14 14 14 14 13 13 13 13 12 12 12 11 11 11 11
11 11 10 10 10 10 10 9 9 9 9 9 9 9 9 9 9 10 10 11 11 12 12 13 13 13 13 14 14 14 14 13 13 13 13 12 12 12 11 11 11 11 10
11 10 10 10 10 9 9 9 9 9 9 9 9 9 9 9 9 9 9 10 10 11 11 12 13 13 13 14 14 14 14 13 13 13 12 12 12 12 11 11 11 11 10
10 10 10 10 10 9 9 9 8 8 8 8 9 9 9 9 9 9 9 9 9 10 11 11 12 13 13 13 14 14 13 13 13 13 13 12 12 12 11 11 11 11 11
9 9 9 9 9 9 8 8 8 8 8 8 8 8 8 9 9 9 9 9 9 9 10 11 11 12 13 13 13 13 13 13 12 12 13 13 13 12 12 11 11 11 10
8 8 8 8 8 8 8 8 7 7 7 7 8 8 8 8 8 9 9 9 9 9 10 10 11 12 12 12 12 12 12 12 12 12 12 12 12 11 11 11 10 10 9
6 6 6 6 6 6 7 7 7 7 7 7 7 7 8 8 8 8 8 8 9 9 9 10 10 11 12 12 12 12 12 12 11 11 11 11 11 11 11 11 11 10 10
5 5 5 5 5 5 6 6 6 6 6 6 7 7 7 8 8 8 8 8 8 9 9 9 10 10 11 11 12 12 12 12 11 11 11 11 11 11 11 11 11 11 11
4 4 4 4 4 4 5 5 5 6 6 6 6 7 7 7 8 8 8 8 8 8 9 9 10 10 11 11 11 11 11 11 11 11 11 11 11 11 11 11 11 11 11
4 4 4 4 4 4 4 5 5 5 5 6 6 6 7 7 7 8 8 8 8 8 8 9 9 10 10 10 11 11 11 11 11 11 10 10 11 11 11 10 11 11 11
4 4 4 4 4 4 4 4 5 5 5 6 6 6 7 7 7 8 8 8 8 8 8 8 9 9 9 10 10 10 11 11 11 11 10 10 10 10 10 11 11 11 11
4 4 4 4 4 4 4 4 5 5 6 6 6 6 6 7 7 8 8 8 8 8 8 8 8 8 9 9 10 10 10 10 10 10 10 10 10 10 10 10 10 11 11
4 4 4 4 4 4 4 5 5 5 6 6 6 6 6 7 7 7 8 8 8 8 8 8 8 8 8 9 9 10 10 10 10 10 10 10 10 10 10 10 10 10 10
5 5 4 4 4 4 5 5 5 6 6 6 6 6 6 7 7 7 7 7 7 7 7 7 7 8 8 9 9 10 10 10 10 10 10 10 10 10 10 10 10 10 10
5 5 5 5 5 5 5 5 5 6 6 6 6 6 6 7 7 7 7 7 7 7 7 7 7 8 8 9 9 10 10 10 10 10 10 10 10 10 9 9 9 9 9
6 6 6 6 6 6 6 6 6 6 6 6 6 6 6 6 6 6 6 6 6 7 7 7 7 8 8 9 10 10 10 10 11 11 10 10 10 10 9 9 9 9 9
6 6 6 6 6 6 6 6 6 6 6 6 6 6 6 6 6 6 6 6 6 6 7 7 7 8 8 9 10 10 10 11 10 10 10 10 10 10 9 9 9 9 9
7 7 7 7 7 7 7 7 7 7 7 6 6 6 6 6 6 6 6 6 6 7 7 7 8 8 9 10 10 10 11 11 10 10 10 10 10 10 10 10 10 10 10
7 7 7 7 7 7 7 7 7 7 7 7 7 6 6 6 6 6 6 6 7 7 7 8 9 9 10 10 10 10 11 10 10 10 10 10 10 10 10 10 10 10 10
8 8 8 7 7 7 7 7 7 7 7 7 7 6 6 6 6 6 7 7 7 8 8 9 9 10 10 11 11 11 11 11 10 10 10 10 10 10 10 10 10 10 10
8 8 8 8 8 8 8 7 7 7 7 7 7 7 7 7 7 7 7 8 8 8 9 10 10 11 11 11 11 11 11 11 10 10 10 10 10 10 10 10 10 10 10
8 8 8 8 8 8 8 8 8 7 7 7 7 7 7 7 7 7 8 8 9 9 10 10 11 11 11 11 11 11 11 11 10 10 10 10 10 10 10 10 10 11 11
8 8 8 8 8 8 8 8 8 8 7 7 7 7 7 7 8 8 8 9 9 10 10 11 11 11 11 11 11 11 11 11 11 10 10 10 10 10 10 10 11 11 11
Wind_Speed
8 8 8 8 8 7 6 7 7 6 6 7 7 7 7 8 7 6 8 8 9 9 8 8 8 6 5 5 4 4 5 6 6 3 2 4 6 10 9 10 12 11 13
10 9 10 10 9 9 9 9 8 8 7 7 7 7 8 8 7 7 8 8 9 9 9 9 9 7 7 5 4 5 5 6 5 5 3 4 6 11 11 10 8 10 11
10 10 11 11 10 11 11 11 10 9 9 8 7 7 8 8 8 8 8 8 8 9 9 9 9 8 8 6 5 5 5 5 5 6 5 4 6 10 11 10 10 8 10
11 11 11 12 12 12 12 11 11 11 10 10 9 9 9 8 8 8 8 8 8 8 8 9 9 9 9 8 6 6 5 5 6 7 8 8 8 9 10 10 9 7 8
11 11 12 12 12 11 11 11 11 11 12 11 10 10 9 8 8 8 7 8 7 7 7 7 9 11 11 9 7 6 6 5 7 8 10 8 9 11 10 7 11 10 7
12 13 12 11 11 11 11 11 10 11 11 11 11 11 11 10 11 12 9 7 8 8 7 6 7 10 11 11 11 10 9 9 10 9 8 11 11 11 10 12 12 11 5
13 13 12 12 11 11 11 9 10 11 11 11 12 11 12 12 15 15 14 9 8 8 8 7 7 8 9 7 7 6 7 11 12 10 12 12 12 13 13 12 10 7 6
12 12 12 11 11 10 10 9 10 9 9 10 11 11 11 12 15 15 15 9 8 9 8 8 8 8 9 9 7 5 4 5 9 9 10 11 13 13 12 11 11 9 8
13 12 11 10 10 10 10 10 9 8 8 8 8 10 10 11 14 15 13 6 7 8 8 8 8 10 13 13 9 8 6 5 8 12 14 15 17 17 14 12 11 12 10
15 14 13 11 11 10 10 10 9 8 9 9 9 9 10 10 13 15 13 6 7 7 7 7 10 11 15 15 11 11 11 9 10 13 14 15 14 14 14 11 12 13 10
16 15 14 12 11 11 10 9 9 8 8 8 9 9 9 11 12 15 14 7 7 7 6 5 6 13 16 17 13 10 13 12 12 12 12 11 10 9 8 8 9 12 10
15 15 14 12 12 12 9 8 8 8 8 8 8 8 7 8 10 12 15 14 10 7 6 5 6 11 15 16 12 13 17 14 11 11 10 9 9 7 7 7 7 6 6
15 14 13 12 10 10 9 9 8 7 7 7 6 7 7 6 7 13 14 14 14 7 5 6 6 11 13 13 14 19 17 12 11 11 10 7 6 7 7 7 7 7 6
15 13 10 9 9 8 8 7 7 7 7 6 6 6 6 5 5 5 5 7 9 7 5 4 6 10 11 11 14 15 11 10 12 11 9 7 6 6 7 8 8 8 6
12 10 8 7 7 7 6 6 7 7 7 7 7 6 5 6 7 9 8 7 7 6 5 3 4 5 8 9 10 10 9 10 10 8 10 8 8 7 6 6 6 5 6
10 9 6 5 5 5 5 5 6 7 10 12 11 8 6 7 7 8 10 11 11 12 7 5 6 7 9 11 13 10 9 10 10 10 10 9 9 8 6 4 5 7 7
10 8 6 5 4 4 4 3 3 2 1 3 5 7 6 5 6 7 8 10 11 12 6 6 7 7 8 10 11 10 9 9 10 11 11 10 9 8 7 7 6 6 6
9 8 7 4 4 4 3 3 2 2 1 1 2 2 3 6 6 8 10 9 6 6 4 6 7 7 7 9 10 9 10 10 10 10 10 9 9 8 8 7 7 6 6
8 6 5 4 3 3 2 1 1 3 3 3 3 3 4 5 5 7 9 4 5 6 5 4 5 6 7 7 8 10 11 10 10 10 9 9 8 8 7 7 7 9 6
8 11 8 4 3 3 2 1 1 3 4 4 4 4 4 3 3 4 4 4 4 5 5 4 4 6 6 7 9 10 10 10 11 8 8 8 8 8 8 9 8 8 6
8 8 9 5 3 3 2 1 1 3 4 4 4 5 7 4 4 5 4 4 4 4 4 3 4 5 6 7 9 10 11 10 9 9 9 8 8 7 7 8 9 8 7
7 5 4 4 3 2 2 1 1 2 4 4 3 4 7 4 4 4 4 4 3 3 2 2 4 6 8 8 9 10 10 10 9 9 9 8 8 7 7 7 7 7 7
7 6 4 4 3 3 3 2 2 3 4 4 4 4 4 3 4 4 4 3 3 2 1 2 4 5 6 7 9 10 11 10 10 10 9 8 8 7 7 7 8 8 7
7 5 4 3 3 3 2 2 2 3 4 4 4 4 3 3 4 4 3 3 2 1 1 2 4 8 10 8 7 7 7 9 9 10 12 10 9 7 7 7 8 9 9
7 5 4 3 3 3 2 2 2 3 4 4 4 4 3 4 4 3 3 2 2 1 1 2 3 6 10 11 10 8 12 14 12 10 8 9 9 8 8 7 6 6 6
7 6 4 4 3 3 2 2 2 3 3 4 4 4 4 4 4 3 3 3 2 1 1 2 3 6 9 9 11 13 14 14 14 14 9 8 8 7 7 6 8 7 7
Wind_Direction
248 248 250 251 253 257 263 269 275 283 296 303 305 306 304 301 291 261 240 228 225 229 228 225 229 222 223 228 221 216 214 209 223 209 160 141 135 129 118 112 108 103 104
245 248 250 251 251 253 256 260 263 268 274 279 286 294 297 298 299 291 275 255 234 229 228 223 227 223 222 222 220 225 224 212 203 190 163 153 142 138 129 119 109 105 103
243 244 250 253 253 253 254 257 258 259 264 269 272 276 282 287 288 287 282 273 254 239 228 220 220 214 222 222 222 230 232 220 195 173 162 149 139 137 128 115 109 104 101
242 241 243 247 248 248 250 251 252 251 253 257 257 259 264 270 276 280 281 278 268 255 238 224 214 208 214 217 223 228 226 211 185 170 161 153 145 139 133 130 121 111 106
242 241 241 242 243 244 246 248 249 249 250 248 248 251 254 259 264 265 267 281 282 270 252 232 217 210 210 209 215 219 210 200 181 169 161 154 151 151 144 140 131 118 94
242 239 236 235 236 236 239 242 246 248 249 247 244 244 246 253 259 264 264 270 274 266 254 241 224 210 209 212 220 218 208 196 183 170 165 162 157 150 141 144 139 134 120
246 241 235 230 229 230 235 237 238 242 245 244 244 240 241 244 249 256 261 260 262 262 247 228 223 209 194 197 204 208 208 200 183 168 164 161 156 153 148 147 146 134 127
261 254 245 234 230 228 228 232 236 237 236 239 239 236 237 244 245 248 255 254 252 254 244 228 216 200 194 184 173 166 162 164 166 160 156 152 150 149 148 145 138 116 109
285 273 260 248 241 234 229 230 232 234 236 235 233 231 231 242 246 246 248 242 245 251 247 235 215 200 193 178 165 158 144 132 128 132 133 134 137 138 139 138 137 138 142
289 282 272 261 253 247 240 235 232 230 235 237 237 230 226 234 243 244 240 223 236 246 244 234 219 204 186 177 169 164 156 147 135 128 125 127 135 142 148 153 153 151 148
293 287 277 264 254 249 245 240 235 234 235 236 237 235 230 231 240 241 233 211 221 233 233 224 214 203 186 181 175 169 159 147 138 133 131 130 132 139 148 153 157 159 156
294 288 282 272 265 265 249 240 233 227 229 234 235 240 239 234 232 237 231 219 212 216 225 217 210 196 187 180 173 156 147 140 136 134 133 134 136 139 140 142 146 146 155
296 289 281 273 265 260 253 246 239 227 226 229 224 233 243 237 235 235 229 219 212 208 217 212 206 191 181 178 168 154 151 146 143 141 141 138 134 134 124 114 109 108 91
299 295 287 277 270 261 253 243 235 228 222 221 220 227 234 236 235 222 206 203 202 202 208 201 189 182 181 170 162 159 156 152 149 145 139 132 123 122 127 129 127 120 103
308 301 293 284 276 269 257 243 232 225 213 209 213 212 211 226 227 203 183 185 187 185 170 166 161 170 180 168 162 159 148 143 138 135 138 137 134 130 129 127 125 116 120
314 307 297 289 284 277 272 274 254 239 231 222 219 211 214 217 210 199 195 186 176 164 160 170 174 178 179 170 163 156 148 146 145 143 144 144 144 141 134 125 123 129 133
316 311 303 293 285 281 273 262 274 315 321 219 221 221 213 180 170 171 171 170 169 163 169 174 174 176 173 166 161 154 148 149 148 149 150 150 146 142 138 136 131 130 135
324 321 316 291 282 278 270 250 214 183 141 82 65 87 131 141 150 155 153 146 163 176 169 168 166 164 163 160 156 149 145 146 148 150 151 151 149 146 145 146 147 147 145
331 327 322 316 304 289 277 256 188 166 154 133 112 80 99 116 126 156 165 172 169 164 154 150 149 150 152 154 151 148 148 151 152 152 153 155 153 148 151 158 161 160 148
332 338 344 339 341 348 3 33 111 141 144 141 146 149 147 139 146 166 184 176 157 148 148 144 143 147 152 152 149 148 148 151 153 152 156 158 157 155 157 161 166 167 167
331 337 352 359 357 359 8 29 108 135 144 145 154 170 171 166 167 166 167 163 153 147 148 149 158 162 155 150 148 149 150 154 157 157 158 158 156 155 156 158 165 166 163
333 335 347 351 355 3 8 29 99 132 143 137 132 146 164 155 158 156 157 163 158 152 163 172 173 167 161 157 154 153 154 156 157 156 156 157 156 155 152 153 156 159 161
333 339 346 352 0 19 34 43 72 107 114 114 125 130 146 146 143 143 154 153 143 151 179 168 160 157 152 154 156 158 161 164 163 159 156 155 155 157 157 159 161 159 168
331 338 343 347 360 16 28 40 60 98 113 115 119 125 133 130 128 136 144 142 145 162 176 150 146 148 147 150 152 153 153 154 152 157 156 157 157 159 163 167 168 174 178
333 340 347 352 6 21 28 35 60 93 107 115 120 127 131 127 131 140 140 141 151 140 97 105 122 137 148 152 155 153 153 153 155 156 153 155 158 162 168 173 173 175 181
342 348 353 356 6 23 40 53 74 96 110 118 121 126 130 134 138 136 134 131 124 98 86 111 126 134 145 153 156 154 157 161 164 161 156 157 160 167 169 174 179 181 184
Height
1481 1478 1475 1472 1470 1468 1466 1463 1461 1458 1456 1454 1453 1452 1452 1452 1452 1453 1454 1455 1456 1456 1456 1455 1455 1454 1454 1454 1454 1454 1455 1455 1456 1457 1459 1461 1463 1465 1467 1469 1471 1473 1476
1475 1471 1468 1466 1463 1461 1459 1457 1455 1452 1451 1449 1447 1446 1445 1445 1445 1445 1446 1448 1449 1449 1449 1449 1449 1449 1449 1449 1449 1449 1449 1450 1451 1452 1455 1457 1460 1462 1465 1467 1470 1472 1475
1466 1463 1461 1458 1456 1454 1452 1450 1448 1446 1445 1443 1442 1440 1439 1438 1438 1438 1439 1439 1440 1442 1443 1443 1443 1443 1443 1443 1443 1443 1444 1444 1445 1447 1450 1454 1457 1460 1463 1466 1469 1471 1474
1457 1454 1452 1450 1448 1446 1444 1442 1441 1439 1438 1437 1436 1435 1434 1432 1432 1431 1432 1432 1432 1434 1435 1436 1437 1437 1438 1438 1437 1437 1438 1438 1440 1442 1446 1450 1453 1457 1460 1464 1467 1471 1473
1447 1444 1442 1440 1439 1437 1435 1434 1432 1431 1430 1429 1429 1428 1428 1427 1426 1425 1425 1425 1425 1426 1427 1428 1430 1431 1432 1432 1432 1432 1432 1433 1435 1437 1441 1445 1449 1453 1457 1461 1465 1469 1473
1436 1433 1431 1430 1428 1427 1426 1424 1423 1422 1421 1421 1421 1421 1420 1420 1420 1419 1418 1418 1418 1419 1419 1421 1423 1424 1426 1426 1426 1426 1427 1428 1429 1432 1436 1440 1444 1449 1454 1459 1462 1466 1471
1424 1421 1419 1418 1417 1416 1415 1415 1414 1413 1413 1412 1412 1413 1412 1413 1413 1412 1412 1412 1411 1412 1412 1414 1415 1418 1420 1421 1421 1421 1422 1423 1426 1428 1431 1436 1440 1445 1450 1456 1461 1466 1469
1411 1409 1407 1405 1404 1404 1404 1404 1404 1404 1403 1403 1403 1404 1404 1404 1405 1405 1405 1405 1405 1405 1406 1407 1409 1411 1414 1415 1416 1417 1418 1419 1422 1425 1429 1433 1439 1444 1450 1455 1461 1467 1472
1399 1396 1394 1393 1391 1391 1391 1392 1392 1393 1393 1394 1394 1395 1395 1396 1397 1398 1398 1398 1398 1399 1399 1400 1402 1405 1408 1410 1412 1413 1415 1417 1420 1424 1429 1433 1439 1444 1450 1455 1461 1466 1471
1387 1384 1381 1380 1379 1378 1379 1380 1381 1382 1383 1384 1385 1386 1387 1388 1389 1390 1391 1391 1392 1392 1393 1394 1396 1399 1402 1405 1408 1410 1412 1415 1418 1423 1428 1433 1439 1444 1450 1455 1459 1464 1469
1376 1372 1369 1367 1366 1366 1367 1368 1370 1371 1373 1374 1375 1376 1378 1379 1381 1382 1384 1385 1386 1386 1387 1388 1390 1393 1397 1401 1404 1408 1411 1414 1418 1422 1427 1433 1439 1444 1450 1456 1461 1465 1468
1365 1360 1357 1355 1354 1354 1356 1357 1359 1361 1363 1365 1367 1368 1370 1372 1373 1374 1376 1378 1380 1381 1382 1383 1385 1388 1392 1397 1401 1406 1410 1413 1417 1422 1427 1433 1438 1444 1450 1456 1461 1465 1470
1356 1351 1347 1345 1345 1345 1346 1348 1350 1352 1355 1357 1359 1360 1362 1364 1366 1368 1370 1372 1374 1375 1377 1378 1380 1383 1388 1393 1399 1404 1408 1412 1416 1421 1427 1433 1439 1445 1450 1455 1461 1465 1470
1348 1344 1341 1338 1338 1338 1339 1340 1342 1345 1347 1350 1352 1354 1356 1358 1360 1361 1363 1366 1368 1370 1372 1373 1376 1379 1383 1389 1396 1402 1407 1411 1416 1421 1427 1434 1439 1445 1450 1454 1459 1464 1468
1344 1340 1337 1335 1333 1333 1334 1335 1337 1339 1342 1344 1347 1349 1351 1353 1355 1357 1359 1361 1363 1365 1367 1369 1372 1375 1379 1385 1392 1399 1405 1411 1417 1423 1428 1434 1439 1444 1449 1454 1458 1462 1466
1342 1337 1334 1332 1331 1331 1331 1332 1334 1336 1338 1340 1343 1345 1348 1350 1352 1354 1355 1357 1359 1361 1363 1365 1368 1372 1376 1382 1388 1396 1404 1410 1417 1423 1428 1434 1439 1444 1448 1453 1457 1461 1465
1342 1337 1334 1332 1331 1330 1330 1331 1332 1334 1336 1338 1340 1343 1345 1347 1349 1351 1352 1354 1356 1357 1360 1362 1365 1370 1374 1380 1387 1395 1403 1410 1417 1423 1428 1433 1438 1443 1447 1451 1456 1460 1464
1344 1339 1336 1333 1332 1331 1331 1331 1332 1333 1335 1337 1339 1341 1344 1346 1347 1349 1350 1351 1353 1355 1357 1360 1363 1368 1373 1380 1388 1396 1403 1411 1417 1423 1428 1433 1438 1442 1446 1450 1455 1459 1462
1347 1342 1338 1336 1334 1333 1332 1332 1333 1334 1335 1337 1339 1341 1342 1344 1346 1347 1348 1350 1351 1353 1356 1359 1363 1368 1374 1382 1390 1398 1404 1411 1417 1422 1428 1433 1437 1442 1446 1450 1454 1458 1462
1350 1346 1342 1339 1337 1335 1335 1335 1335 1335 1336 1337 1339 1340 1342 1343 1344 1345 1347 1349 1351 1354 1357 1360 1365 1371 1378 1385 1392 1399 1405 1411 1417 1422 1428 1432 1437 1442 1446 1450 1454 1458 1461
1353 1349 1345 1343 1340 1339 1338 1337 1337 1337 1337 1338 1340 1341 1342 1343 1345 1346 1348 1350 1353 1356 1360 1364 1370 1376 1382 1388 1395 1401 1406 1412 1417 1423 1428 1432 1437 1441 1445 1450 1454 1457 1461
1356 1353 1349 1346 1344 1342 1341 1340 1339 1339 1340 1340 1341 1342 1343 1344 1346 1348 1350 1353 1356 1360 1364 1369 1374 1380 1385 1391 1397 1402 1407 1412 1417 1422 1427 1432 1437 1441 1445 1449 1453 1457 1460
1359 1356 1353 1350 1348 1346 1344 1343 1342 1342 1342 1342 1343 1344 1345 1346 1349 1351 1354 1357 1360 1364 1368 1373 1378 1383 1388 1394 1399 1403 1408 1412 1417 1422 1427 1431 1436 1440 1444 1448 1452 1455 1459
1362 1359 1356 1353 1351 1349 1348 1347 1346 1345 1345 1345 1346 1348 1349 1350 1353 1356 1359 1362 1365 1369 1373 1377 1382 1387 1391 1396 1401 1405 1409 1413 1418 1422 1427 1431 1436 1440 1444 1447 1451 1454 1457
1363 1360 1358 1356 1354 1352 1351 1350 1349 1348 1348 1349 1350 1351 1353 1355 1357 1360 1363 1367 1370 1374 1378 1382 1386 1391 1395 1399 1403 1407 1411 1414 1419 1423 1427 1431 1435 1439 1443 1446 1449 1452 1455
1365 1362 1360 1358 1356 1355 1354 1353 1352 1352 1352 1353 1354 1355 1357 1359 1362 1365 1369 1372 1376 1380 1383 1387 1391 1394 1398 1401 1405 1409 1412 1416 1420 1423 1427 1431 1435 1438 1442 1445 1447 1450 1452